www.pogodaiklimat.ru

Погода и климат >> Архив погоды >> Россия >> Камчатский край >> Семячик


АРХИВ ПОГОДЫ в Семячике

Время (UTC), дата Ветер
(напр.,м/с)
 
Видим.   Явления Облачность Т
(С)
Тd
(С)
f
(%)
Тe
(С)
Тes
(С)
Комфортность P
(гПа)
Po
(гПа)
Тmin
(С)
Tmax
(С)
R
(мм)
R24
(мм)
S
(см)
12 14.03 СЗ 1 20 км 6/6 600 м
[Sc]
-4.5 -8.1 76 -7 -7 1004.5 1001.1
15 14.03 С 5 20 км 6/6 600 м
[Sc]
-5.6 -8.8 78 -13 -13 1003.6 1000.1
18 14.03 ЮЗ 1 20 км 4/4 600 м
[Sc]
-7.7 -10.4 81 -10 -10 1003.2 999.7
21 14.03 СЗ 5
{11}
50 км 5/3 600 м
[Sc Ac trans]
-8.3 -13.9 64 -16 -15 1003.9 1000.4 -8.5 0
00 15.03 С 3 50 км 3/0
[Ci fib]
-3.5 -12.9 48 -8 -3 1004.4 1001.0
03 15.03 В 2 50 км 3/0
[Ci sp]
-2.6 -10.0 57 -6 -1 1004.4 1001.0
06 15.03 Ю 4 50 км ясно -3.2 -7.5 72 -9 -9 1005.2 1001.8
09 15.03 З 3 20 км 3/3 600 м
[Sc]
-6.6 -11.1 70 -12 -12 1007.2 1003.7 -1.1
12 15.03 С 1 20 км 3/3 600 м
[Sc]
-6.7 -11.1 71 -9 -9 1008.3 1004.8
15 15.03 С 2 20 км 3/3 600 м
[Sc]
-6.8 -12.6 63 -11 -11 1009.0 1005.5
18 15.03 СВ 2 20 км 6/6 600 м
[Sc]
-7.9 -11.6 75 -12 -12 1009.7 1006.2
21 15.03 СЗ 2 50 км 4/4 600 м
[Sc]
-8.0 -11.0 79 -12 -12 1010.8 1007.2 -9.1 0
00 16.03 В 1 50 км 4/0
[Ci fib]
-4.2 -10.1 63 -6 +1 1011.0 1007.5
03 16.03 Ю 3 50 км 4/0
[Ci sp]
-3.2 -8.1 69 -8 -4 1010.9 1007.5
06 16.03 ЮВ 2 50 км 9/0
[Ci sp]
-3.8 -7.6 75 -8 -7 1011.2 1007.7
09 16.03 З 1 20 км 6/0
[Ci sp]
-6.1 -11.0 68 -8 -8 1012.2 1008.7 -2.9
12 16.03 З 3 20 км 6/0
[Ci sp]
-5.1 -17.0 39 -10 -10 1013.0 1009.5
15 16.03 СЗ 7
{11}
20 км ясно -5.9 -17.6 39 -14 -14 1012.7 1009.3
18 16.03 СЗ 7-11
{11}
20 км ясно -6.7 -16.9 44 -15 -15 1012.3 1008.8
21 16.03 С 5
{11}
50 км ясно -5.9 -15.7 46 -13 -12 1012.2 1008.7 -7.3 0
00 17.03 СВ 4 50 км ясно -2.0 -12.8 43 -7 -3 1011.7 1008.3
03 17.03 ЮВ 2 50 км ясно -2.7 -11.1 52 -6 0 1010.0 1006.6
06 17.03 Ю 2 50 км ясно -3.6 -11.5 54 -7 -6 1008.8 1005.4
09 17.03 З 3 20 км ясно -7.1 -12.5 65 -13 -13 1008.7 1005.2 -1.7
12 17.03 З 3 20 км ясно -8.0 -12.7 69 -14 -14 1008.1 1004.6
15 17.03 З 2 20 км ясно -8.6 -13.1 70 -13 -13 1007.1 1003.6
18 17.03 ЮЗ 1 20 км 5/0
[Ac trans Ci fib]
-8.3 -12.2 73 -11 -11 1006.3 1002.8
21 17.03 СЗ 2 50 км 4/0
[Ac trans]
-7.3 -13.1 63 -11 -10 1006.2 1002.7 -9.7 0
00 18.03 Ю 2 50 км 8/0
[Ac trans Ci fib]
-3.8 -11.2 56 -7 -3 1005.6 1002.1
03 18.03 Ю 5 50 км 8/0
[Ac trans Ci sp]
-2.2 -8.3 63 -8 -6 1004.1 1000.7
06 18.03 З 2 50 км 8/4 600 м
[Sc Ac trans Ci sp]
-0.7 -13.7 37 -3 -3 1003.8 1000.4
09 18.03 З 2 20 км 10/8 600 м
[Sc Ci sp]
-2.8 -12.1 49 -6 -6 1004.3 1000.8 +0.4
12 18.03 ЮЗ 1 20 км 10/0
[Ac trans]
-4.1 -11.8 55 -6 -6 1004.5 1001.1
15 18.03 С 1 20 км 10/0
[Ac trans]
-4.1 -12.3 53 -6 -6 1004.1 1000.7
18 18.03 С 2 20 км 10/0
[Ac trans]
-5.6 -11.6 63 -10 -10 1004.3 1000.8
21 18.03 СЗ 2 50 км 6/0
[Ac trans Ci fib]
-5.2 -12.8 55 -9 -8 1004.6 1001.1 -6.8 0
00 19.03 Ю 6 50 км 9/0
[Ac trans Ci]
-1.7 -8.2 61 -8 -7 1004.1 1000.7
03 19.03 Ю 10-12
{12}
50 км 6/0
[Ci sp]
-1.1 -7.5 62 -9 -9 1002.7 999.3
06 19.03 Ю 8-10
{13}
50 км 6/3 600 м
[Sc Ac trans Ci sp]
-0.3 -6.2 64 -7 -7 1002.5 999.1
09 19.03 З 1
{11}
20 км 10/4 600 м
[Sc Ac As Ci sp]
-1.9 -8.5 61 -4 -4 1003.0 999.6 +1.7
12 19.03 СВ 10-13
{13}
20 км 10/10 600 м
[Sc]
-2.3 -6.0 76 -11 -11 1002.7 999.3
15 19.03 СВ 14-19
{19}
20 км 10/0 600 м
[]
-3.8 -5.0 91 -14 -14 1000.9 997.4
18 19.03 СВ 13-18
{20}
2000 м слаб. ливневой снег {метель} 10/10 300 м
[Cb cap]
-5.1 -5.7 96 -16 -16 999.0 995.6
21 19.03 СВ 18-22
{22}
500 м сильная метель {ливн. осадки} ?/? -5.1 -5.7 96 -17 -17 996.3 992.9 -5.2 8 5
00 20.03 СВ 17-22
{24}
500 м сильная метель {ливн. осадки} ?/? -4.0 -4.5 96 -16 -16 993.8 990.4
03 20.03 СВ 16-19
{24}
2000 м слаб. ливневой снег {метель} 10/10 300 м
[Cb cap]
-3.3 -3.7 97 -14 -14 991.8 988.5
06 20.03 СЗ 10-16
{19}
500 м сильная метель {ливн. осадки} ?/? -6.8 -7.5 95 -17 -17 991.8 988.5
09 20.03 СЗ 12-19
{21}
2000 м слаб. ливневой снег {метель} 10/10 300 м
[Cb cap]
-8.4 -9.6 91 -20 -20 994.4 990.9 -2.8 10
12 20.03 СЗ 12-19
{21}
10 км метель {ливн. осадки} 9/9 600 м
[Sc]
-8.5 -11.1 81 -20 -20 994.8 991.3
15 20.03 СЗ 13-24
{24}
20 км пыльная буря {метель} 10/10 600 м
[Sc]
-7.9 -13.9 62 -19 -19 994.6 991.2
18 20.03 СЗ 14-22
{24}
20 км позёмок 10/10 600 м
[Sc]
-8.3 -15.0 58 -20 -20 993.6 990.2
21 20.03 СЗ 15-23
{24}
50 км позёмок 10/10 600 м
[Sc]
-8.4 -16.7 51 -20 -20 993.5 990.1 -8.9 0.8 2
00 21.03 СЗ 12-19
{25}
50 км позёмок 9/6 600 м
[Sc Ac trans Ci fib]
-7.1 -15.8 50 -18 -18 994.6 991.1
03 21.03 СЗ 12-19
{22}
50 км позёмок 9/6 600 м
[Sc Ac trans Ci sp]
-5.8 -15.7 45 -16 -16 994.8 991.4
06 21.03 СЗ 13-21
{22}
50 км позёмок 9/6 600 м
[Sc Ac trans Ci sp]
-5.7 -15.6 46 -16 -16 996.6 993.2
09 21.03 СЗ 11-18
{23}
20 км позёмок 10/10 600 м
[Sc]
-6.7 -16.5 46 -17 -17 999.1 995.6 -5.5

 

Местоположение метеостанции Семячик (Камчатский край, Россия): широта 54.12 долгота 159.90 высота над уровнем моря 27 м.

В архиве по умолчанию представлена погода в Семячике за последнюю неделю. Архивные данные за месяц целиком и за предыдущие месяцы, начиная с января 2011 года, Вы можете получить, выбрав интересующий диапазон дат из раскрывающегося списка и нажав кнопку "Ввод!".


*Определитесь, кто Вы:
робот инопланетянин человек

Внимание! Время в таблицах - всемирное. Для получения местного времени необходимо прибавить поправку, которая равна 12 ч.

Смотрите также архив погоды в соседних городах и на ближайших метеорологических станциях:

Погода в Мильково (Камчатский край, Россия) (110 км)
Погода в Пущино (Камчатский край, Россия) (124 км)
Погода в Долиновке (Камчатский край, Россия) (125 км)
Погода в Петропавловск-Камч. 2 (Камчатский край, Россия) (148 км)
Погода в Сосновке (Камчатский край, Россия) (157 км)
Погода в Петропавловском Маяке (Камчатский край, Россия) (159 км)
Погода в Петропавловск-Камчатском (Камчатский край, Россия) (163 км)
Погода в Начиках (Камчатский край, Россия) (183 км)
Погода в Козыревске (Камчатский край, Россия) (215 км)
Погода в Эссо (Камчатский край, Россия) (215 км)

Пояснения к столбцам:

Ветер - указаны скорость ветра в м/с - средняя за 10 мин, порывы в срок и между сроками (в фигурных скобках) и направление, откуда дует ветер: С - северный, СВ - северо-восточный, В - восточный, ЮВ - юго-восточный, Ю - южный, ЮЗ - юго-западный, З - западный, СЗ - северо-западный.
Видимость - горизонтальная дальность видимости в метрах или километрах. При видимости от 1 до 10 км при отсутствии осадков обычно наблюдается дымка, при ухудшении видимости до 1 км и менее - туман. В сухую погоду видимость может ухудшаться дымом, пылью или мглою.
Явления - указаны атмосферные явления, наблюдавшиеся в срок или в последний час перед сроком; фигурными скобками обозначены явления, наблюдавшиеся между сроками (за 1-3 часа до срока); квадратными скобками обозначены град или гололедные отложения с указанием их диаметра в мм.
Облачность - указаны через наклонную черту общая и нижняя облачность в баллах и высота нижней границы облаков в метрах; квадратными скобками обозначены формы облаков: Ci - перистые, Cs - перисто-слоистые, Cc - перисто-кучевые, Ac - высококучевые, As - высокослоистые, Sc - слоисто-кучевые, Ns - слоисто-дождевые, Cu - кучевые, Cb - кучево-дождевые. Подробнее классификацию облаков см. в Атласе облаков (PDF).
T - Температура воздуха - температура, измеренная на высоте 2 м над землей.
Td - Температура точки росы - температура, при понижении до которой содержащийся в воздухе водяной пар достигнет насыщения.
f - Относительная влажность воздуха - влажноcть воздуха, измеренная на высоте 2 м над землей.
Te - Эффективная температура - температура, которую ощущает одетый по сезону человек в тени. Характеристика душности погоды. При расчете учитывается влияние влажности воздуха и скорости ветра на теплоощущения человека.
Tes - Эффективная температура на солнце - температура, которую ощущает человек, с поправкой на солнечный нагрев. Характеристика знойности погоды. Зависит от высоты солнца над горизонтом, облачности и скорости ветра. Ночью, в пасмурную погоду, а также при ветре 12 м/с и более поправка равна нулю.
P - Атмосферное давление - приведенное к уровню моря атмосферное давление.
Po - Атмосферное давление - измеренное на уровне метеостанции атмосферное давление.
Tmin - Минимальная температура - минимум температуры воздуха на высоте 2 м над землей.
Tmax - Максимальная температура - максимум температуры воздуха на высоте 2 м над землей.
R - Количество осадков - Количество выпавших осадков за период времени, мм. При наведении курсора мыши на число - период времени, за который выпало указанное количество осадков.
R24 - Количество осадков - Количество выпавших осадков за 24 часа, мм.
S - Снежный покров - Высота снежного покрова, см. При наведении курсора мыши на число - состояние снежного покрова и степень покрытия местности в баллах.